Du Bois, PA

2:15 PM EST on December 11, 2017 (GMT -0500)
Du Bois-Jefferson County

Weather History for KDUJ - September, 2014

Change the Weather History Date:

Monday, September 22, 2014

  Actual Average Record
Temperature  
Mean Temperature 47 °F 57 °F  
Max Temperature 53 °F 67 °F 87 °F (1965)
Min Temperature 41 °F 47 °F 36 °F (2000)
Degree Days  
Heating Degree Days 18 8  
Month to date heating degree days 124 105  
Since 1 July heating degree days 196 167  
Cooling Degree Days 0 0  
Month to date cooling degree days 35 28  
Year to date cooling degree days 410 359  
Moisture  
Dew Point 44 °F    
Average Humidity 80    
Maximum Humidity 93    
Minimum Humidity 66    
Precipitation  
Precipitation 0.00 in 0.12 in 2.00 in (1992)
Month to date precipitation 1.46 2.75  
Year to date precipitation 32.36  
Sea Level Pressure  
Sea Level Pressure 30.04 in    
Wind  
Wind Speed 11 mph (WNW)    
Max Wind Speed 20 mph    
Max Gust Speed 28 mph    
Visibility 10 miles    
Events      
T = Trace of Precipitation, MM = Missing Value Source: NWS Daily Summary

Daily Weather History Graph

Daily Weather History Graph

Search for Another Location

Airport or City:

Trip Planner

Search our weather history database for the weather conditions in past years. The results will help you decide how hot, cold, wet, or windy it might be!

Date:

Astronomy

Sep. 22, 2014 Rise Set
Actual Time 7:03 AM EDT 7:12 PM EDT
Civil Twilight 6:35 AM EDT 7:40 PM EDT
Nautical Twilight 6:03 AM EDT 8:12 PM EDT
Astronomical Twilight 5:30 AM EDT 8:45 PM EDT
Moon 5:29 AM EDT (9/22) 6:19 PM EDT (9/22)
Length of Visible Light 13h 04m
Length of Day
12h 09m
Waning Crescent, 2% of the Moon is Illuminated
Sep 22
Waning Crescent
Sep 24
New
Oct 1
First Quarter
Oct 8
Full
Oct 15
Last Quarter

Hourly Weather History & Observations

Time (EDT) Temp. Windchill Dew Point Humidity Pressure Visibility Wind Dir Wind Speed Gust Speed Precip Events Conditions
12:53 AM 53.1 °F - 50.0 °F 89% 29.82 in 9.0 mi West 12.7 mph 23.0 mph N/A   Overcast
1:42 AM 52.0 °F - 50.0 °F 93% 29.85 in 10.0 mi West 11.5 mph - N/A   Overcast
1:53 AM 52.0 °F - 48.9 °F 89% 29.83 in 10.0 mi WNW 13.8 mph 25.3 mph N/A   Overcast
2:36 AM 51.1 °F - 48.9 °F 92% 29.85 in 9.0 mi NW 11.5 mph - N/A   Overcast
2:53 AM 51.1 °F - 48.0 °F 89% 29.83 in 7.0 mi NW 18.4 mph 24.2 mph N/A   Overcast
3:03 AM 50.0 °F - 48.9 °F 96% 29.86 in 4.0 mi NW 11.5 mph 23.0 mph N/A   Overcast
3:13 AM 50.0 °F - 48.0 °F 93% 29.86 in 5.0 mi WNW 12.7 mph 19.6 mph N/A   Overcast
3:25 AM 50.0 °F - 46.9 °F 89% 29.86 in 10.0 mi NW 17.3 mph 24.2 mph N/A   Mostly Cloudy
3:45 AM 48.9 °F - 46.0 °F 90% 29.86 in 10.0 mi WNW 11.5 mph 25.3 mph N/A   Mostly Cloudy
3:53 AM 48.9 °F - 46.0 °F 90% 29.86 in 10.0 mi WNW 16.1 mph 20.7 mph N/A   Mostly Cloudy
4:05 AM 48.9 °F - 45.0 °F 86% 29.87 in 10.0 mi WNW 11.5 mph 23.0 mph N/A   Mostly Cloudy
4:40 AM 48.9 °F - 46.0 °F 90% 29.88 in 8.0 mi NW 12.7 mph 19.6 mph N/A   Overcast
4:53 AM 48.9 °F - 46.0 °F 90% 29.88 in 10.0 mi WNW 9.2 mph 18.4 mph N/A   Overcast
5:53 AM 48.0 °F - 44.1 °F 86% 29.91 in 10.0 mi WNW 11.5 mph 21.9 mph N/A   Mostly Cloudy
6:16 AM 48.0 °F - 43.0 °F 83% 29.93 in 10.0 mi WNW 17.3 mph 26.5 mph N/A   Mostly Cloudy
6:45 AM 48.0 °F - 43.0 °F 83% 29.95 in 10.0 mi NW 16.1 mph 26.5 mph N/A   Overcast
6:53 AM 48.0 °F - 43.0 °F 83% 29.96 in 10.0 mi WNW 15.0 mph 23.0 mph N/A   Overcast
7:35 AM 46.9 °F - 43.0 °F 86% 30.00 in 10.0 mi WNW 12.7 mph - N/A   Overcast
7:53 AM 48.0 °F - 43.0 °F 83% 30.01 in 10.0 mi WNW 10.4 mph - N/A   Overcast
8:38 AM 48.0 °F - 43.0 °F 83% 30.02 in 10.0 mi WNW 10.4 mph - N/A   Overcast
8:53 AM 48.9 °F - 43.0 °F 80% 30.03 in 10.0 mi NW 13.8 mph 23.0 mph N/A   Overcast
9:53 AM 48.9 °F - 42.1 °F 77% 30.06 in 10.0 mi NW 11.5 mph - N/A   Overcast
10:02 AM 48.9 °F - 41.0 °F 74% 30.06 in 10.0 mi NW 12.7 mph 19.6 mph N/A   Overcast
10:44 AM 50.0 °F - 39.9 °F 68% 30.08 in 10.0 mi NW 9.2 mph 23.0 mph N/A   Overcast
10:53 AM 50.0 °F - 39.9 °F 68% 30.09 in 10.0 mi NW 10.4 mph 25.3 mph N/A   Overcast
11:53 AM 50.0 °F - 41.0 °F 71% 30.10 in 10.0 mi NW 10.4 mph - N/A   Overcast
12:53 PM 52.0 °F - 42.1 °F 69% 30.12 in 10.0 mi WNW 9.2 mph - N/A   Overcast
1:16 PM 52.0 °F - 42.1 °F 69% 30.11 in 10.0 mi NW 11.5 mph - N/A   Overcast
1:46 PM 52.0 °F - 42.1 °F 69% 30.11 in 10.0 mi WNW 11.5 mph - N/A   Overcast
1:53 PM 52.0 °F - 43.0 °F 71% 30.12 in 10.0 mi NW 12.7 mph - N/A   Overcast
2:53 PM 53.1 °F - 43.0 °F 69% 30.12 in 10.0 mi WNW 11.5 mph - N/A   Overcast
3:04 PM 52.0 °F - 43.0 °F 71% 30.12 in 10.0 mi NW 15.0 mph 20.7 mph N/A   Overcast
3:30 PM 52.0 °F - 43.0 °F 71% 30.12 in 10.0 mi WNW 13.8 mph 21.9 mph N/A   Overcast
3:42 PM 51.1 °F - 43.0 °F 74% 30.12 in 10.0 mi WNW 12.7 mph 20.7 mph N/A   Overcast
3:53 PM 52.0 °F - 45.0 °F 77% 30.14 in 10.0 mi West 11.5 mph - N/A   Overcast
4:34 PM 52.0 °F - 44.1 °F 74% 30.13 in 10.0 mi WNW 10.4 mph - N/A   Overcast
4:53 PM 51.1 °F - 44.1 °F 77% 30.14 in 10.0 mi WNW 10.4 mph 20.7 mph N/A   Overcast
5:11 PM 51.1 °F - 43.0 °F 74% 30.13 in 10.0 mi WNW 12.7 mph - N/A   Overcast
5:18 PM 51.1 °F - 43.0 °F 74% 30.14 in 10.0 mi West 13.8 mph - N/A   Overcast
5:53 PM 50.0 °F - 42.1 °F 74% 30.17 in 10.0 mi WNW 10.4 mph 19.6 mph N/A   Overcast
6:46 PM 48.9 °F - 43.0 °F 80% 30.17 in 10.0 mi NW 8.1 mph - N/A   Overcast
6:53 PM 48.9 °F - 43.0 °F 80% 30.18 in 10.0 mi WNW 6.9 mph - N/A   Overcast
7:53 PM 48.9 °F - 43.0 °F 80% 30.21 in 10.0 mi West 10.4 mph - N/A   Overcast
8:53 PM 48.0 °F - 42.1 °F 80% 30.23 in 10.0 mi WNW 9.2 mph - N/A   Overcast
9:53 PM 46.0 °F 43.1 °F 41.0 °F 83% 30.25 in 10.0 mi West 5.8 mph - N/A   Overcast
10:53 PM 45.0 °F 40.6 °F 41.0 °F 86% 30.26 in 10.0 mi West 8.1 mph - N/A   Clear
11:53 PM 43.0 °F 38.8 °F 39.9 °F 89% 30.27 in 10.0 mi West 6.9 mph - N/A   Clear